Location: Bad Salzschlirf
(50.3750°N, 9.3000°E)
Time: 16:42:20
(UTC+02:00)

ISS - Pass Details

Date: 27 May 2020
Orbit: 417 x 420 km, 51.6° (Epoch: 25 May)

Event Time Altitude Azimuth Distance (km) Brightness Sun altitude
Rises 22:20:00 0° 285° (WNW) 2,366 1.1 -7.9°
Reaches altitude 10° 22:22:06 10° 284° (WNW) 1,501 0.0 -8.1°
Maximum altitude 22:25:29 78° 198° (SSW) 433 -3.8 -8.5°
Drops below altitude 10° 22:28:50 10° 112° (ESE) 1,498 -1.5 -8.8°
Enters shadow 22:28:53 10° 112° (ESE) 1,514 -1.5 -8.8°
